Cosmos 841 Rocket - Orbit

View from above orbital plane
View from above orbital plane
View from above satellite
View from above satellite

Ground track
Ground track

The orbit data is extracted from the following two-line orbital elements,

1 09023U 76069B   13138.83924762  .00000322  00000-0  11270-3 0  1127
2 09023 074.0439 326.1651 0017114 141.6692 218.5682 14.38928222930409
Epoch (UTC): 18 May 2013 20:08:30
Eccentricity: 0.0017114
inclination: 74.0439°
perigee height: 750 km
apogee height: 774 km
right ascension of ascending node: 326.1651°
argument of perigee: 141.6692°
revolutions per day: 14.38928222
mean anomaly at epoch: 218.5682°
orbit number at epoch: 93040

The dashed part of the orbit path shows where the satellite is in the earth's shadow,  

Developed and maintained by Chris Peat, Heavens-Above GmbH. Please read the updated FAQ before sending e-mail. Imprint. DLR